AUA772 LBSF-LOWW

Flight info

Callsign AUA772
Flight time N/A
Altitude 38000
Route OGOTA T228 UTEKA DCT DONIV DCT PARAK DCT BALUX DCT TORNO DCT NATEX NATEX2W
Aircraft E190/M-SDE3GILORVW/S

Departure

Time 2026-04-29 10:02
Airport Sofia Airport (LBSF)

Arrival

Time N/A
Airport Vienna International Airport (LOWW)
Time Latitude Longitude Altitude Speed Heading
2026-04-29 09:39 42.69131 23.41430 1747 ft 0 kts 242°
2026-04-29 09:52 42.69134 23.41440 1739 ft 4 kts 249°
2026-04-29 09:52 42.69142 23.41474 1741 ft 4 kts 258°
2026-04-29 09:52 42.69146 23.41510 1741 ft 4 kts 274°
2026-04-29 09:52 42.69142 23.41540 1742 ft 1 kts 289°
2026-04-29 09:53 42.69141 23.41545 1747 ft 0 kts 289°
2026-04-29 09:54 42.69143 23.41538 1747 ft 2 kts 289°
2026-04-29 09:55 42.69156 23.41531 1742 ft 2 kts 356°
2026-04-29 09:55 42.69184 23.41529 1740 ft 7 kts 358°
2026-04-29 09:55 42.69225 23.41527 1747 ft 11 kts 358°
2026-04-29 09:55 42.69311 23.41518 1741 ft 14 kts
2026-04-29 09:56 42.69442 23.41546 1747 ft 14 kts 34°
2026-04-29 09:56 42.69465 23.41625 1747 ft 14 kts 92°
2026-04-29 09:56 42.69457 23.41756 1747 ft 14 kts 95°
2026-04-29 09:56 42.69450 23.41887 1743 ft 14 kts 94°
2026-04-29 09:57 42.69442 23.42027 1748 ft 15 kts 94°
2026-04-29 09:57 42.69433 23.42178 1745 ft 16 kts 95°
2026-04-29 09:57 42.69422 23.42337 1749 ft 17 kts 95°
2026-04-29 09:57 42.69413 23.42502 1749 ft 18 kts 94°
2026-04-29 09:58 42.69403 23.42677 1746 ft 19 kts 94°
2026-04-29 09:58 42.69392 23.42861 1742 ft 20 kts 95°
2026-04-29 09:58 42.69381 23.43052 1748 ft 21 kts 94°
2026-04-29 09:58 42.69369 23.43252 1750 ft 22 kts 94°
2026-04-29 09:59 42.69357 23.43459 1750 ft 22 kts 94°
2026-04-29 09:59 42.69345 23.43671 1745 ft 23 kts 94°
2026-04-29 09:59 42.69334 23.43880 1786 ft 16 kts 91°
2026-04-29 09:59 42.69390 23.43952 1791 ft 4 kts
2026-04-29 10:00 42.69419 23.43954 1791 ft 4 kts
2026-04-29 10:00 42.69424 23.43955 1784 ft 0 kts
2026-04-29 10:01 42.69428 23.43955 1786 ft 2 kts
2026-04-29 10:01 42.69458 23.43958 1787 ft 7 kts
2026-04-29 10:01 42.69514 23.43916 1786 ft 15 kts 292°
2026-04-29 10:02 42.69530 23.43700 1751 ft 43 kts 274°
2026-04-29 10:02 42.69573 23.42960 1749 ft 115 kts 275°
2026-04-29 10:02 42.69660 23.41569 1840 ft 170 kts 275°
2026-04-29 10:02 42.69805 23.39864 2492 ft 196 kts 281°
2026-04-29 10:03 42.70283 23.38029 3224 ft 221 kts 304°
2026-04-29 10:03 42.71515 23.36707 4099 ft 234 kts 339°
2026-04-29 10:03 42.73112 23.36122 5214 ft 239 kts 345°
2026-04-29 10:03 42.74661 23.35606 6581 ft 232 kts 342°
2026-04-29 10:04 42.76272 23.35022 7435 ft 244 kts 342°
2026-04-29 10:04 42.77980 23.34481 8281 ft 266 kts 343°
2026-04-29 10:04 42.79869 23.33975 9168 ft 284 kts 346°
2026-04-29 10:04 42.81168 23.33677 9979 ft 288 kts 347°
2026-04-29 10:05 42.83929 23.33103 11170 ft 311 kts 348°
2026-04-29 10:05 42.86116 23.32880 12320 ft 318 kts 355°
2026-04-29 10:05 42.88342 23.32894 13548 ft 321 kts 356°
2026-04-29 10:05 42.90565 23.32904 14651 ft 324 kts 355°
2026-04-29 10:06 42.92832 23.32894 15710 ft 328 kts 355°
2026-04-29 10:06 42.95158 23.32884 16784 ft 331 kts 355°
2026-04-29 10:06 42.97441 23.32875 17798 ft 334 kts 355°
2026-04-29 10:06 42.99811 23.32855 18709 ft 338 kts 355°
2026-04-29 10:07 43.02139 23.32842 19538 ft 342 kts 355°
2026-04-29 10:07 43.04533 23.32828 20314 ft 346 kts 354°
2026-04-29 10:07 43.06962 23.32810 21095 ft 350 kts 354°
2026-04-29 10:07 43.09413 23.32795 21850 ft 354 kts 354°
2026-04-29 10:08 43.11888 23.32779 22580 ft 358 kts 354°
2026-04-29 10:08 43.14392 23.32764 23285 ft 361 kts 353°
2026-04-29 10:08 43.16916 23.32747 24009 ft 364 kts 353°
2026-04-29 10:08 43.19447 23.32624 24579 ft 362 kts 345°
2026-04-29 10:09 43.21799 23.31581 25157 ft 353 kts 327°
2026-04-29 10:09 43.23746 23.29584 25737 ft 349 kts 313°
2026-04-29 10:09 43.25530 23.27290 26344 ft 351 kts 314°
2026-04-29 10:09 43.27320 23.24999 26939 ft 353 kts 313°
2026-04-29 10:10 43.29106 23.22674 27512 ft 355 kts 313°
2026-04-29 10:10 43.30886 23.20348 28026 ft 359 kts 313°
2026-04-29 10:10 43.32690 23.17953 28537 ft 361 kts 312°
2026-04-29 10:10 43.34497 23.15526 29051 ft 363 kts 312°
2026-04-29 10:11 43.36299 23.13079 29529 ft 366 kts 312°
2026-04-29 10:11 43.38109 23.10604 30016 ft 368 kts 311°
2026-04-29 10:11 43.39921 23.08118 30503 ft 368 kts 312°
2026-04-29 10:11 43.41772 23.05668 30898 ft 370 kts 313°
2026-04-29 10:12 43.43630 23.03208 31257 ft 372 kts 312°
2026-04-29 10:12 43.45504 23.00730 31608 ft 374 kts 312°
2026-04-29 10:12 43.47381 22.98238 31965 ft 376 kts 312°
2026-04-29 10:12 43.49274 22.95725 32305 ft 378 kts 313°
2026-04-29 10:13 43.51163 22.93213 32744 ft 377 kts 312°
2026-04-29 10:13 43.53042 22.90713 33224 ft 375 kts 312°
2026-04-29 10:13 43.54907 22.88228 33703 ft 373 kts 312°
2026-04-29 10:13 43.56770 22.85747 34144 ft 371 kts 312°
2026-04-29 10:14 43.58623 22.83274 34482 ft 371 kts 312°
2026-04-29 10:14 43.60453 22.80830 34786 ft 371 kts 312°
2026-04-29 10:14 43.62303 22.78353 35081 ft 371 kts 312°
2026-04-29 10:14 43.64156 22.75874 35362 ft 371 kts 313°
2026-04-29 10:15 43.66007 22.73395 35710 ft 369 kts 313°
2026-04-29 10:15 43.67848 22.70927 36064 ft 368 kts 313°
2026-04-29 10:15 43.69685 22.68462 36346 ft 368 kts 313°
2026-04-29 10:15 43.71521 22.65997 36621 ft 368 kts 313°
2026-04-29 10:16 43.73178 22.63768 36860 ft 368 kts 313°
2026-04-29 10:16 43.74390 22.62137 37019 ft 368 kts 313°
2026-04-29 10:16 43.76844 22.58829 37359 ft 368 kts 313°
2026-04-29 10:16 43.78681 22.56353 37600 ft 368 kts 313°
2026-04-29 10:17 43.80518 22.53873 37805 ft 369 kts 313°
2026-04-29 10:17 43.82336 22.51417 38012 ft 369 kts 313°
2026-04-29 10:17 43.84168 22.48939 38272 ft 369 kts 313°
2026-04-29 10:17 43.86016 22.46436 38256 ft 374 kts 313°
2026-04-29 10:18 43.89695 22.41459 38194 ft 358 kts 313°
2026-04-29 10:18 43.91470 22.39051 38336 ft 357 kts 313°
2026-04-29 10:18 43.93211 22.36604 38416 ft 357 kts 311°
2026-04-29 10:19 43.96663 22.31589 38448 ft 360 kts 311°
2026-04-29 10:19 44.00155 22.26538 38496 ft 365 kts 311°
2026-04-29 10:20 44.03715 22.21400 38514 ft 371 kts 311°
2026-04-29 10:20 44.07295 22.16224 38421 ft 376 kts 311°
2026-04-29 10:21 44.10939 22.10948 38418 ft 380 kts 311°
2026-04-29 10:21 44.14610 22.05622 38423 ft 382 kts 311°
2026-04-29 10:22 44.18310 22.00247 38433 ft 386 kts 311°
2026-04-29 10:22 44.22044 21.94806 38426 ft 391 kts 311°
2026-04-29 10:23 44.25794 21.89336 38437 ft 391 kts 311°
2026-04-29 10:23 44.29546 21.83851 38430 ft 390 kts 311°
2026-04-29 10:24 44.33271 21.78393 38438 ft 390 kts 311°
2026-04-29 10:24 44.37014 21.72899 38442 ft 390 kts 311°
2026-04-29 10:25 44.40753 21.67399 38443 ft 390 kts 311°
2026-04-29 10:25 44.44481 21.61905 38444 ft 389 kts 311°
2026-04-29 10:26 44.48207 21.56404 38447 ft 389 kts 311°
2026-04-29 10:26 44.51934 21.50890 38452 ft 390 kts 311°
2026-04-29 10:27 44.57531 21.42586 38441 ft 391 kts 311°
2026-04-29 10:28 44.61233 21.37084 38447 ft 391 kts 311°
2026-04-29 10:28 44.64962 21.31530 38444 ft 391 kts 311°
2026-04-29 10:29 44.68692 21.25961 38424 ft 391 kts 311°
2026-04-29 10:29 44.72416 21.20390 38458 ft 391 kts 311°
2026-04-29 10:30 44.76625 21.15554 38483 ft 397 kts 327°
2026-04-29 10:30 44.81511 21.11878 38457 ft 398 kts 327°
2026-04-29 10:31 44.86371 21.08263 38452 ft 398 kts 328°
2026-04-29 10:31 44.91279 21.04633 38452 ft 398 kts 328°
2026-04-29 10:32 44.96186 21.01002 38451 ft 398 kts 328°
2026-04-29 10:32 45.01100 20.97360 38491 ft 398 kts 328°
2026-04-29 10:33 45.06022 20.93705 38462 ft 400 kts 328°
2026-04-29 10:33 45.10949 20.90038 38465 ft 400 kts 328°
2026-04-29 10:34 45.15887 20.86357 38467 ft 401 kts 328°
2026-04-29 10:34 45.20792 20.82692 38467 ft 401 kts 328°
2026-04-29 10:35 45.25737 20.78991 38506 ft 402 kts 328°
2026-04-29 10:35 45.30706 20.75264 38455 ft 405 kts 328°
2026-04-29 10:36 45.35694 20.71515 38470 ft 405 kts 328°
2026-04-29 10:36 45.40682 20.67760 38475 ft 406 kts 328°
2026-04-29 10:37 45.45679 20.63989 38475 ft 406 kts 328°
2026-04-29 10:37 45.50633 20.60245 38465 ft 406 kts 328°
2026-04-29 10:38 45.55617 20.56469 38476 ft 404 kts 328°
2026-04-29 10:38 45.60589 20.52694 38484 ft 405 kts 328°
2026-04-29 10:39 45.65566 20.48908 38483 ft 405 kts 328°
2026-04-29 10:39 45.70513 20.45137 38486 ft 405 kts 328°
2026-04-29 10:40 45.75493 20.41334 38469 ft 405 kts 328°
2026-04-29 10:40 45.80443 20.37547 38491 ft 403 kts 328°
2026-04-29 10:41 45.85391 20.33752 38496 ft 403 kts 328°
2026-04-29 10:41 45.90317 20.29966 38488 ft 403 kts 328°
2026-04-29 10:42 45.95270 20.26153 38495 ft 403 kts 328°
2026-04-29 10:42 46.00224 20.22330 38479 ft 404 kts 328°
2026-04-29 10:43 46.05163 20.18513 38501 ft 403 kts 327°
2026-04-29 10:43 46.10110 20.14679 38502 ft 404 kts 327°
2026-04-29 10:44 46.15046 20.10846 38498 ft 405 kts 327°
2026-04-29 10:44 46.19983 20.06937 38500 ft 404 kts 326°
2026-04-29 10:45 46.24067 20.03632 38479 ft 406 kts 327°
2026-04-29 10:45 46.29001 19.99646 38496 ft 407 kts 327°
2026-04-29 10:46 46.33948 19.95646 38505 ft 408 kts 327°
2026-04-29 10:46 46.39710 19.90979 38503 ft 408 kts 327°
2026-04-29 10:47 46.43839 19.87628 38502 ft 408 kts 327°
2026-04-29 10:47 46.48797 19.83595 38506 ft 409 kts 327°
2026-04-29 10:48 46.53748 19.79562 38503 ft 408 kts 327°
2026-04-29 10:48 46.58697 19.75520 38499 ft 407 kts 327°
2026-04-29 10:49 46.63650 19.71465 38510 ft 408 kts 327°
2026-04-29 10:49 46.68600 19.67408 38506 ft 408 kts 327°
2026-04-29 10:50 46.73512 19.63371 38549 ft 408 kts 327°
2026-04-29 10:50 46.78430 19.59321 38497 ft 405 kts 327°
2026-04-29 10:51 46.83339 19.55269 38504 ft 405 kts 327°
2026-04-29 10:51 46.88252 19.51205 38514 ft 406 kts 327°
2026-04-29 10:52 46.93169 19.47131 38514 ft 406 kts 327°
2026-04-29 10:52 46.98079 19.43055 38528 ft 406 kts 327°
2026-04-29 10:53 47.02971 19.38982 38499 ft 408 kts 327°
2026-04-29 10:53 47.07913 19.34863 38500 ft 409 kts 326°
2026-04-29 10:54 47.12852 19.30735 38512 ft 408 kts 326°
2026-04-29 10:54 47.17802 19.26588 38513 ft 410 kts 327°
2026-04-29 10:55 47.22771 19.22419 38511 ft 411 kts 327°
2026-04-29 10:55 47.27622 19.18348 38462 ft 390 kts 326°
2026-04-29 10:55 47.29925 19.16413 38446 ft 374 kts 326°
2026-04-29 10:56 47.32090 19.14456 38479 ft 356 kts 318°
2026-04-29 10:56 47.33853 19.11968 38533 ft 349 kts 306°
2026-04-29 10:56 47.35134 19.08935 38544 ft 349 kts 296°
2026-04-29 10:57 47.37244 19.02452 38502 ft 353 kts 295°
2026-04-29 10:57 47.38309 18.99126 37117 ft 363 kts 295°
2026-04-29 10:57 47.39350 18.95691 35610 ft 370 kts 294°
2026-04-29 10:57 47.40386 18.92244 34170 ft 373 kts 295°
2026-04-29 10:58 47.41470 18.88676 32789 ft 378 kts 294°
2026-04-29 10:58 47.42529 18.85275 32492 ft 363 kts 295°
2026-04-29 10:58 47.43582 18.81928 32017 ft 354 kts 294°
2026-04-29 10:58 47.44272 18.79732 31698 ft 348 kts 294°
2026-04-29 10:59 47.45603 18.75504 31131 ft 336 kts 294°
2026-04-29 10:59 47.46573 18.72421 30687 ft 327 kts 294°
2026-04-29 10:59 47.47521 18.69402 30268 ft 320 kts 294°
2026-04-29 10:59 47.47821 18.68446 30094 ft 318 kts 294°
2026-04-29 11:00 47.48744 18.65514 29702 ft 312 kts 294°
2026-04-29 11:00 47.49660 18.62603 29302 ft 314 kts 294°
2026-04-29 11:00 47.50590 18.59645 28884 ft 320 kts 294°
2026-04-29 11:00 47.51528 18.56664 28457 ft 320 kts 294°
2026-04-29 11:01 47.52472 18.53666 28032 ft 322 kts 294°
2026-04-29 11:01 47.53416 18.50671 27592 ft 320 kts 294°
2026-04-29 11:01 47.54319 18.47671 27085 ft 320 kts 290°
2026-04-29 11:01 47.54965 18.44541 26686 ft 316 kts 287°
2026-04-29 11:02 47.55606 18.41437 26240 ft 315 kts 288°
2026-04-29 11:02 47.56249 18.38342 25846 ft 314 kts 288°
2026-04-29 11:02 47.56898 18.35255 25436 ft 314 kts 288°
2026-04-29 11:02 47.57546 18.32172 25026 ft 313 kts 288°
2026-04-29 11:03 47.58188 18.29132 24624 ft 313 kts 288°
2026-04-29 11:03 47.58834 18.26061 24217 ft 311 kts 288°
2026-04-29 11:03 47.59483 18.23000 23786 ft 312 kts 288°
2026-04-29 11:03 47.60127 18.19942 23373 ft 309 kts 288°
2026-04-29 11:04 47.60768 18.16909 22974 ft 309 kts 288°
2026-04-29 11:04 47.61408 18.13867 22377 ft 312 kts 288°
2026-04-29 11:04 47.62056 18.10784 21901 ft 309 kts 288°
2026-04-29 11:04 47.62692 18.07760 21466 ft 307 kts 288°
2026-04-29 11:05 47.63326 18.04745 21099 ft 304 kts 288°
2026-04-29 11:05 47.63954 18.01754 20678 ft 305 kts 288°
2026-04-29 11:05 47.64458 17.98708 20317 ft 307 kts 277°
2026-04-29 11:05 47.64579 17.95551 20072 ft 306 kts 276°
2026-04-29 11:06 47.64709 17.92397 19821 ft 307 kts 276°
2026-04-29 11:06 47.64833 17.89234 19617 ft 307 kts 276°
2026-04-29 11:06 47.64949 17.86112 19417 ft 301 kts 276°
2026-04-29 11:06 47.65060 17.83014 19153 ft 300 kts 276°
2026-04-29 11:07 47.65166 17.79928 18889 ft 299 kts 276°
2026-04-29 11:07 47.65272 17.76856 18675 ft 297 kts 276°
2026-04-29 11:07 47.65375 17.73787 18486 ft 297 kts 276°
2026-04-29 11:07 47.65482 17.70719 18269 ft 298 kts 276°
2026-04-29 11:08 47.65584 17.67694 18049 ft 297 kts 276°